FW7176 Weather Reports


time (UTC)temp
C
wind
direction
speed
KPH
gust
KPH
rain 1hr
cm
rain 24hr
cm
rain mn
cm
humidity
%
barometer
mb
20260506201532 20 0 1.6 16.1 0.00 0.00 0.00 65 1020.1
20260506200033 21 244 6.4 19.3 0.00 0.00 0.00 62 1020.1
20260506194539 21 265 6.4 16.1 0.00 0.00 0.00 61 1020.2
20260506193035 20 286 8.0 17.7 0.00 0.00 0.00 62 1020.2
20260506191536 20 238 3.2 17.7 0.00 0.00 0.00 64 1020.3
20260506190037 20 34 1.6 17.7 0.00 0.00 0.00 67 1020.3
20260506184535 19 248 3.2 19.3 0.00 0.00 0.00 68 1020.3
20260506183035 19 234 8.0 19.3 0.00 0.00 0.00 68 1020.4
20260506181536 19 180 3.2 22.5 0.00 0.00 0.00 69 1020.3
20260506180042 19 192 6.4 16.1 0.00 0.00 0.00 67 1020.5
20260506174535 19 227 6.4 16.1 0.00 0.00 0.00 68 1020.6
20260506173036 19 298 4.8 16.1 0.00 0.00 0.00 68 1020.5
20260506171543 19 212 8.0 16.1 0.00 0.00 0.00 69 1020.5
20260506170039 18 244 3.2 14.5 0.00 0.00 0.00 69 1020.6
20260506164535 18 233 3.2 12.9 0.00 0.00 0.00 71 1020.5
20260506163040 17 230 3.2 11.3 0.00 0.00 0.00 74 1020.5
20260506161532 17 246 3.2 8.0 0.00 0.00 0.00 75 1020.7
20260506160032 16 221 1.6 11.3 0.00 0.00 0.00 79 1020.7
20260506154536 14 229 1.6 6.4 0.00 0.00 0.00 81 1020.8
20260506153032 13 0 0.0 6.4 0.00 0.00 0.00 86 1021.0
20260506151536 12 0 0.0 0.0 0.00 0.00 0.00 87 1021.1
20260506150033 11 0 0.0 0.0 0.00 0.00 0.00 90 1021.1
20260506144530 11 0 0.0 4.8 0.00 0.00 0.00 93 1021.0
20260506143034 10 0 0.0 1.6 0.00 0.00 0.00 94 1021.1
20260506141533 10 0 0.0 0.0 0.00 0.00 0.00 95 1020.8
20260506140048 8 0 0.0 0.0 0.00 0.00 0.00 94 1020.7
20260506134532 8 0 0.0 0.0 0.00 0.00 0.00 94 1020.5
20260506133044 7 0 0.0 1.6 0.00 0.00 0.00 94 1020.4
20260506131535 7 0 0.0 0.0 0.00 0.00 0.00 93 1020.3
20260506130032 7 0 0.0 0.0 0.00 0.00 0.00 93 1020.1
20260506124536 7 0 0.0 0.0 0.00 0.00 0.00 93 1020.0
20260506123035 7 0 0.0 0.0 0.00 0.00 0.00 93 1020.0
20260506121533 8 0 0.0 0.0 0.00 0.00 0.00 93 1020.0
20260506120046 8 0 0.0 0.0 0.00 0.00 0.00 93 1020.1
20260506114536 8 0 0.0 0.0 0.00 0.00 0.00 92 1020.2
20260506113045 8 0 0.0 0.0 0.00 0.00 0.00 92 1020.1
20260506111533 8 0 0.0 0.0 0.00 0.00 0.00 92 1020.2
20260506110036 8 0 0.0 1.6 0.00 0.00 0.00 92 1020.2
20260506104546 8 0 0.0 0.0 0.00 0.00 0.00 92 1020.1
20260506103037 8 0 0.0 0.0 0.00 0.00 0.00 92 1020.0
20260506101545 8 0 0.0 0.0 0.00 0.00 0.00 92 1020.1
20260506100035 8 0 0.0 0.0 0.00 0.00 0.00 92 1020.0
20260506094534 9 0 0.0 0.0 0.00 0.00 0.00 92 1020.2
20260506093032 9 0 0.0 0.0 0.00 0.00 0.00 91 1020.1
20260506091537 10 0 0.0 0.0 0.00 0.00 0.00 91 1020.2
20260506090036 10 0 0.0 1.6 0.00 0.00 0.00 92 1020.3
20260506084540 10 0 0.0 0.0 0.00 0.00 0.00 90 1020.3
20260506083034 10 0 0.0 0.0 0.00 0.00 0.00 91 1020.4
20260506081536 10 0 0.0 0.0 0.00 0.00 0.00 90 1020.5
20260506073037 11 0 0.0 4.8 0.00 0.00 0.00 90 1020.4
20260506071533 11 0 0.0 4.8 0.00 0.00 0.00 90 1020.4
20260506061535 11 0 0.0 1.6 0.00 0.00 0.00 89 1019.9
20260506044540 12 0 0.0 3.2 0.00 0.00 0.00 85 1019.3
20260506043037 12 0 0.0 4.8 0.00 0.00 0.00 84 1019.2
20260506041538 12 0 0.0 3.2 0.00 0.00 0.00 84 1019.0
20260506040040 12 0 0.0 6.4 0.00 0.00 0.00 83 1018.9
20260506034535 13 311 1.6 6.4 0.00 0.00 0.00 82 1018.7
20260506033035 13 0 0.0 8.0 0.00 0.00 0.00 81 1018.4
20260506031530 13 327 1.6 12.9 0.00 0.00 0.00 80 1018.4
20260506030036 13 355 3.2 14.5 0.00 0.00 0.00 78 1018.2
20260506024538 14 306 0.0 12.9 0.00 0.00 0.00 76 1017.9
20260506023046 15 5 3.2 16.1 0.00 0.00 0.00 73 1017.8
20260506021535 15 291 0.0 6.4 0.00 0.00 0.00 73 1017.5
20260506020034 15 217 3.2 16.1 0.00 0.00 0.00 73 1017.4
20260506014538 15 221 3.2 16.1 0.00 0.00 0.00 73 1017.1
20260506013034 16 259 1.6 16.1 0.00 0.00 0.00 72 1017.0
20260506011535 16 312 0.0 19.3 0.00 0.00 0.00 71 1017.0
20260506010045 17 235 3.2 22.5 0.00 0.00 0.00 68 1017.1
20260506004541 18 192 3.2 19.3 0.00 0.00 0.00 67 1017.1
20260506003035 17 220 4.8 19.3 0.00 0.00 0.00 69 1017.0
20260506001542 17 268 4.8 17.7 0.00 0.00 0.00 68 1017.0
20260506000034 17 259 6.4 17.7 0.00 0.00 0.00 68 1016.9
20260505234555 17 276 6.4 20.9 0.00 0.00 0.00 68 1017.0
20260505233039 17 188 3.2 19.3 0.00 0.00 0.00 68 1017.1
20260505231536 18 266 4.8 16.1 0.00 0.00 0.00 63 1017.0
20260505230034 20 150 3.2 17.7 0.00 0.00 0.00 61 1017.2
20260505224536 18 284 3.2 19.3 0.00 0.00 0.00 65 1017.2
20260505223034 18 268 6.4 19.3 0.00 0.00 0.00 64 1017.3
20260505221536 17 237 6.4 17.7 0.00 0.00 0.00 66 1017.5
20260505220035 17 220 6.4 22.5 0.00 0.00 0.00 66 1017.5
20260505214558 18 290 4.8 20.9 0.00 0.00 0.00 64 1017.8
20260505213036 17 236 3.2 17.7 0.00 0.00 0.00 66 1017.9
20260505211532 17 281 8.0 19.3 0.00 0.00 0.00 63 1018.0
20260505210031 19 200 3.2 12.9 0.00 0.00 0.00 60 1017.9
20260505204537 17 309 1.6 22.5 0.00 0.00 0.00 68 1017.9
20260505203038 17 140 6.4 19.3 0.00 0.00 0.00 65 1018.0